Tracking 31027 objects as of 19-Jul-2025
HD Live streaming from Space Station
objects crossing your sky now

ORBCOMM FM 20

Track ORBCOMM FM 20 now!
10-day predictions
ORBCOMM FM 20 is classified as:


NORAD ID: 25416
Int'l Code: 1998-046D
Perigee: 773.8 km
Apogee: 775.7 km
Inclination: 45.0 °
Period: 100.2 minutes
Semi major axis: 7145 km
RCS: 0.613 m2 (medium)
Launch date: August 2, 1998
Source: ORBCOMM (ORB)
Launch site: Pegasus launched from Eastern Range Air Space (ERAS)
Your satellite tracking list
Your tracking list is empty




NASA's NSSDC Master Catalog

Two Line Element Set (TLE):
1 25416U 98046D   25199.60669285  .00000517  00000-0  21915-3 0  9997
2 25416  44.9952  32.4704 0001328 100.6097 259.4900 14.37253278408788
Source of the keplerian elements: AFSPC